カタログに戻る

QIANFAN-131

運用中通信PO
NORAD 69077·PAYLOAD·🇨🇳 China

打ち上げ May 12, 2026 から Taiyuan Satellite Launch Center

Loading…

次のパス (今後24時間)

TLE

最新Source: Space-Track

元期: Sep 14, 2026, 22:04 UTC

1 69077U 26104E   26257.92010046  .00000112  00000-0  15456-3 0  9994
2 69077  88.9905 332.3080 0002039 107.1953 252.9421 13.51025256 17271

AllMySatでQIANFAN-131をリアルタイム追跡

Download on the App Store